Weather History for 62463 - November, 2013

Change the Weather History Date:

Tuesday, November 12, 2013

  Actual Average Record
Temperature  
Mean Temperature 78 °F -  
Max Temperature 90 °F 75 °F - ()
Min Temperature 66 °F 59 °F - ()
Cooling Degree Days 13    
Growing Degree Days 28 (Base 50)    
Moisture  
Dew Point 61 °F    
Average Humidity 58    
Maximum Humidity 73    
Minimum Humidity 31    
Precipitation  
Precipitation 0.00 in - - ()
Sea Level Pressure  
Sea Level Pressure 29.91 in    
Wind  
Wind Speed 6 mph ()    
Max Wind Speed 13 mph    
Max Gust Speed -    
Visibility 6.1 miles    
Events      
T = Trace of Precipitation, MM = Missing Value Source: Averaged Metar Reports

Daily Weather History Graph

Daily Weather History Graph

Search for Another Location

Airport or City:

Trip Planner

Search our weather history database for the weather conditions in past years. The results will help you decide how hot, cold, wet, or windy it might be!

Date:

Astronomy

Nov. 12, 2013 Rise Set
Actual Time 6:02 AM EET 4:54 PM EET
Civil Twilight 5:38 AM EET 5:19 PM EET
Nautical Twilight 5:10 AM EET 5:47 PM EET
Astronomical Twilight 4:42 AM EET 6:14 PM EET
Moon 1:32 PM EET (11/12) 12:58 AM EET (11/12)
Length of Visible Light 11h 41m
Length of Day
10h 52m
Waxing Gibbous, 73% of the Moon is Illuminated
Nov 12
Waxing Gibbous
Nov 17
Full
Nov 25
Last Quarter
Dec 3
New
Dec 9
First Quarter

Hourly Weather History & Observations

Time (EET) Temp. Heat Index Dew Point Humidity Pressure Visibility Wind Dir Wind Speed Gust Speed Precip Events Conditions
12:00 AM 66.2 °F - 51.8 °F 60% 29.92 in - Calm Calm - N/A   Clear
1:00 AM 68.0 °F - 59.0 °F 73% 29.89 in - NW 9.2 mph - N/A   Clear
2:00 AM 66 °F - 57 °F 65% 29.91 in 6 mi WNW 4.6 mph - -  
2:00 AM 66.2 °F - 57.2 °F 73% 29.89 in - WNW 4.6 mph - N/A   Clear
3:00 AM 68.0 °F - 57.2 °F 68% 29.89 in - WNW 4.6 mph - N/A   Clear
4:00 AM 68.0 °F - 57.2 °F 68% 29.89 in - NW 9.2 mph - N/A   Clear
5:00 AM 68.0 °F - 57.2 °F 68% 29.92 in - NW 6.9 mph - N/A   Clear
6:00 AM 68.0 °F - 59.0 °F 73% 29.92 in - NW 6.9 mph - N/A   Clear
7:00 AM 68.0 °F - 59.0 °F 73% 29.95 in - NW 6.9 mph - N/A   Clear
8:00 AM 74 °F - 60 °F 52% 29.96 in 6 mi NW 9.2 mph - -  
8:00 AM 73.4 °F - 59.0 °F 61% 29.95 in - NW 9.2 mph - N/A   Clear
9:00 AM 77.0 °F - 60.8 °F 57% 29.98 in - NNW 12.7 mph - N/A   Clear
10:00 AM 80.6 °F 81.5 °F 60.8 °F 51% 29.95 in - NNW 8.1 mph - N/A   Clear
11:00 AM 83 °F - 64 °F 43% 29.94 in 6 mi North 8.1 mph - -  
11:00 AM 80.6 °F 82.3 °F 64.4 °F 58% 29.92 in - North 8.1 mph - N/A   Clear
12:00 PM 86.0 °F 87.3 °F 64.4 °F 48% 29.89 in - North 10.4 mph - N/A   Clear
1:00 PM 87.8 °F 89.4 °F 64.4 °F 46% 29.89 in 6.2 mi NNE 6.9 mph - N/A   Partly Cloudy
2:00 PM 89 °F - 62 °F 31% 29.89 in 6 mi NNE 11.5 mph - -   Scattered Clouds
2:00 PM 89.6 °F 90.1 °F 62.6 °F 40% 29.89 in 6.2 mi NNE 11.5 mph - N/A   Partly Cloudy
3:00 PM 87.8 °F 89.4 °F 64.4 °F 46% 29.86 in 6.2 mi NNE 9.2 mph - N/A   Partly Cloudy
4:00 PM 86.0 °F 87.3 °F 64.4 °F 48% 29.86 in - NNE 6.9 mph - N/A   Clear
5:00 PM 81 °F - 64 °F 48% 29.89 in 6 mi NNE 5.8 mph - -  
5:00 PM 80.6 °F 82.3 °F 64.4 °F 58% 29.89 in - NNE 5.8 mph - N/A   Clear
6:00 PM 78.8 °F - 66.2 °F 65% 29.89 in - North 6.9 mph - N/A   Clear
7:00 PM 75.2 °F - 66.2 °F 73% 29.89 in - NW 5.8 mph - N/A   Clear
8:00 PM 74 °F - 62 °F 57% 29.92 in 6 mi NNW 6.9 mph - -  
8:00 PM 73.4 °F - 62.6 °F 69% 29.92 in - NNW 6.9 mph - N/A   Clear
9:00 PM 73.4 °F - 62.6 °F 69% 29.92 in - WNW 6.9 mph - N/A   Clear
10:00 PM 71.6 °F - 57.2 °F 60% 29.92 in - NW 9.2 mph - N/A   Clear
11:00 PM 72 °F - 57 °F 50% 29.92 in 6 mi NW 9.2 mph - -  
11:00 PM 71.6 °F - 57.2 °F 60% 29.92 in - NW 9.2 mph - N/A   Clear